Location: Kitt Peak
(31.9639°N, 111.5992°W)
Time: 04:07:44
(UTC-07:00)

Envisat - Visible Passes

Search period start: 15 December 2019 00:00
Search period end: 25 December 2019 00:00
Orbit: 764 x 766 km, 98.1° (Epoch: 15 December)

Date Brightness Start Highest point End Pass type
(mag) Time Alt. Az. Time Alt. Az. Time Alt. Az.
15 Dec 5.4 06:21:19 10° NE 06:25:31 26° E 06:29:42 10° SSE visible
15 Dec 4.6 19:09:29 10° SSW 19:14:04 35° W 19:18:41 10° NNW visible
16 Dec 3.0 18:32:11 10° SSE 18:37:15 86° WSW 18:42:21 10° NNW visible
17 Dec 4.2 06:46:11 10° NNE 06:51:06 48° E 06:55:59 10° S visible
17 Dec 3.4 17:55:57 10° SE 18:00:37 39° ENE 18:05:18 10° N visible
17 Dec 5.7 19:36:13 10° SW 19:39:42 19° W 19:43:12 10° NW visible
18 Dec 5.9 06:10:30 10° NE 06:14:11 20° E 06:17:49 10° SE visible
18 Dec 4.1 18:57:56 10° S 19:02:46 45° W 19:07:37 10° NNW visible
19 Dec 2.9 18:20:58 10° SSE 18:26:00 73° ENE 18:31:04 10° N visible
20 Dec 4.7 06:35:06 10° NNE 06:39:47 37° E 06:44:27 10° SSE visible
20 Dec 3.8 17:45:03 10° SE 17:49:25 30° ENE 17:53:47 10° NNE visible
20 Dec 5.3 19:24:18 10° SSW 19:28:21 24° W 19:32:26 10° NW visible
21 Dec 6.0 05:59:55 10° ENE 06:02:49 15° E 06:05:41 10° SE visible
21 Dec 3.6 18:46:29 10° S 18:51:28 60° W 18:56:28 10° NNW visible
22 Dec 3.1 18:09:49 10° SSE 18:14:44 56° ENE 18:19:42 10° N visible
22 Dec 6.1 19:51:54 10° WSW 19:54:01 13° W 19:56:10 10° WNW visible
23 Dec 5.2 06:24:06 10° NE 06:28:28 28° E 06:32:48 10° SSE visible
23 Dec 4.8 19:12:33 10° SSW 19:17:01 31° W 19:21:30 10° NW visible
24 Dec 6.3 05:49:55 10° ENE 05:51:26 11° E 05:52:57 10° ESE visible
24 Dec 3.1 18:35:07 10° S 18:40:10 78° WSW 18:45:16 10° NNW visible
